Regional Weather Roundup
Issued by NWS

Home | Current Version | Previous Version | Text Only | Print | Product List | Glossary On
Versions: 1 2 3 4 5 6 7 8 9 10 11 12 13 14 15 16 17 18 19 20 21 22 23 24 25 26 27 28 29 30 31 32 33 34 35 36 37 38 39 40 41 42 43 44 45 46 47 48 49 50
000
ASUS43 KOAX 250610
RWRNE

WEATHER ROUNDUP FOR NEBRASKA
NATIONAL WEATHER SERVICE OMAHA NE
100 AM CDT MON MAY 25 2015

NOTES: SATELLITE DATA IS BEING USED TO AUGMENT CLOUD COVER ABOVE
       12000 FEET.
       "FAIR" INDICATES FEW OR NO CLOUDS BELOW 12,000 FEET WITH NO
       SIGNIFICANT WEATHER AND/OR OBSTRUCTIONS TO VISIBILITY.

  * THESE STATIONS DO NOT REPORT WEATHER SUCH AS RAIN...SNOW OR FOG.

NEZ001>004-019>022-054>056-250700-
NEBRASKA PANHANDLE

CITY           SKY/WX    TMP DP  RH WIND       PRES   REMARKS
SCOTTSBLUFF    CLOUDY    54  50  86 E10       29.85S
6HR MIN TEMP:  53; 6HR MAX TEMP:  65; 6HR PCP:  0.08;

ALLIANCE       CLOUDY    51  50  96 N7        29.83F
6HR MIN TEMP:  51; 6HR MAX TEMP:  68; 6HR PCP:  0.20;

CHADRON        CLOUDY    53  50  89 NE5       29.82S
6HR MIN TEMP:  53; 6HR MAX TEMP:  60; 6HR PCP:  0.15;

KIMBALL          N/A    N/A N/A N/A MISG        N/A
SIDNEY         CLOUDY    51  47  86 NE8       29.84S
6HR MIN TEMP:  50; 6HR MAX TEMP:  53; 6HR PCP:  0.12;

$$

NEZ057>060-069>072-079>082-250700-
SOUTHWEST NEBRASKA

CITY           SKY/WX    TMP DP  RH WIND       PRES   REMARKS
NORTH PLATTE   CLOUDY    53  51  93 E3        29.79F
6HR MIN TEMP:  52; 6HR MAX TEMP:  67; 6HR PCP:  0.07;

IMPERIAL       CLOUDY    52  49  89 SW6       29.77F
6HR MIN TEMP:  52; 6HR MAX TEMP:  72;

LEXINGTON      CLOUDY    54  52  93 CALM      29.79F
MCCOOK         HVY RAIN  54  52  93 S10       29.82R FOG
6HR MIN TEMP:  53; 6HR MAX TEMP:  70; 6HR PCP:  0.30;

OGALLALA       LGT RAIN  52  51  98 NW6       29.80S
$$

NEZ005>010-023>029-035>040-094-250700-
NORTH CENTRAL NEBRASKA

CITY           SKY/WX    TMP DP  RH WIND       PRES   REMARKS
VALENTINE      CLOUDY    58  57  97 NE6       29.81F
6HR MIN TEMP:  57; 6HR MAX TEMP:  65;

AINSWORTH      CLOUDY    58  58 100 SE7       29.81S FOG
BROKEN BOW     CLOUDY    59  54  83 NW3       29.78F
6HR MIN TEMP:  57; 6HR MAX TEMP:  67;

O`NEILL        FOG       58  58  99 CALM      29.79F VSB 1/4
ORD            CLOUDY    58  56  93 CALM      29.79S FOG
6HR MIN TEMP:  55; 6HR MAX TEMP:  65;

THEDFORD       RAIN      57  52  84 W18G25    29.81S
$$

NEZ041-046>049-061>064-073>077-083>087-250700-
SOUTH CENTRAL NEBRASKA

CITY           SKY/WX    TMP DP  RH WIND       PRES   REMARKS
GRAND ISLAND   MOCLDY    60  59  96 S7        29.80S
6HR MIN TEMP:  57; 6HR MAX TEMP:  67; 6HR PCP: TRACE;

AURORA         PTCLDY    61  61 100 SW7       29.80S
HASTINGS       PTCLDY    60  59  96 S7        29.80S
6HR MIN TEMP:  60; 6HR MAX TEMP:  65; 6HR PCP: TRACE;

HEBRON         PTCLDY    61  58  90 SW7       29.80F
HOLDREGE       CLOUDY    56  52  86 W9        29.81S
KEARNEY *      MOCLDY    57  55  94 S7        29.80F
YORK           PTCLDY    61  59  94 SW7       29.80S
$$

NEZ011>018-030>034-042>045-250700-
NORTHEAST NEBRASKA

CITY           SKY/WX    TMP DP  RH WIND       PRES   REMARKS
NORFOLK        FOG       55  55 100 W3        29.78S VSB 1/4
6HR MIN TEMP:  55; 6HR MAX TEMP:  65;

ALBION         CLOUDY    57  55  94 CALM      29.80R FOG
BLAIR          CLOUDY    63  60  90 S8        29.78F
COLUMBUS *     MOCLDY    61  55  82 SW3       29.81S
FREMONT        CLOUDY    64  61  90 SW5       29.78F
TEKAMAH        CLOUDY    63  61  93 S3        29.77S
6HR MIN TEMP:  63; 6HR MAX TEMP:  68;

WAYNE          FOG       58  58  98 CALM      29.78S VSB 1/4
$$

NEZ050>053-065>068-078-088>093-250700-
SOUTHEAST NEBRASKA

CITY           SKY/WX    TMP DP  RH WIND       PRES   REMARKS
LINCOLN        CLOUDY    61  59  93 CALM      29.79F
6HR MIN TEMP:  61; 6HR MAX TEMP:  68;

OMAHA EPPLEY   CLOUDY    66  60  81 S5        29.77F
6HR MIN TEMP:  66; 6HR MAX TEMP:  70;

BEATRICE       CLOUDY    61  60  97 SW6       29.81R
FALLS CITY     CLOUDY    62  60  93 SE5       29.80F
6HR MIN TEMP:  62; 6HR MAX TEMP:  66; 6HR PCP: TRACE;

NEBRASKA CITY  CLOUDY    62  62 100 S5        29.80F
PLATTSMOUTH    CLOUDY    61  58  91 CALM      29.79F
$$

NEZ044-045-051>053-067-250700-
OMAHA AREA

CITY           SKY/WX    TMP DP  RH WIND       PRES   REMARKS
OMAHA EPPLEY   CLOUDY    66  60  81 S5        29.77F
6HR MIN TEMP:  66; 6HR MAX TEMP:  70;

BLAIR          CLOUDY    63  60  90 S8        29.78F
FREMONT        CLOUDY    64  61  90 SW5       29.78F
MILLARD        CLOUDY    65  61  87 CALM      29.78F
OFFUTT AFB     CLOUDY    62  60  94 S2        29.77F
PLATTSMOUTH    CLOUDY    61  58  91 CALM      29.79F
WAHOO          MOCLDY    63  60  91 SE3       29.78F
$$


USA.gov is the U.S. government's official web portal to all federal, state and local government web resources and services.